• Join FlightAware (Why Join?)
  • Login
  • US Flag 
08:13AM EDT


 

Airport Tracker/Info


-or-


 

Live Flight TrackerFlight Track Log ✈ BJS339 ✈ 14-Jun-2014 ✈ KMEM - KMKE

Flight Track Log - Related Links

Times and Time Zones

All times are in EDT time to prevent confusion due to time zone crossing. See the BJS339 flight status page for this flight to view local times or setup timezone preferences in your user account.

Time Position Orientation Groundspeed Altitude Reporting Facility
EDT Latitude Longitude Course Direction KTS MPH feet Rate Location/Type
07:52PM 35.0333 -89.9667 180° South 205 236 1,100  Level KMEM
07:53PM 34.9833 -89.9667 172° South 233 268 3,100 3,000 Climbing KMEM
07:54PM 34.9333 -89.9167 141° Southeast 276 318 6,200 3,000 Climbing KMEM
07:55PM 34.9833 -89.8667 39° Northeast 296 341 9,500 2,820 Climbing KMEM
07:56PM 35.0669 -89.8572 North 306 352 12,200 2,760 Climbing Memphis Center
07:57PM 35.1606 -89.8500 North 324 373 15,200 2,820 Climbing Memphis Center
07:58PM 35.2611 -89.8431 North 343 395 18,100 2,820 Climbing Memphis Center
07:59PM 35.3861 -89.8347 North 362 417 21,000 2,340 Climbing Memphis Center
08:00PM 35.4975 -89.8269 North 382 440 23,000 1,800 Climbing Memphis Center
08:01PM 35.6133 -89.8192 North 401 461 24,800 1,260 Climbing Memphis Center
08:02PM 35.7333 -89.8089 North 417 480 25,700 900 Climbing Memphis Center
08:03PM 35.8592 -89.7825 10° North 439 505 26,700 1,260 Climbing Memphis Center
08:04PM 35.9847 -89.7533 11° North 453 521 28,300 1,500 Climbing Memphis Center
08:05PM 36.1089 -89.7244 11° North 453 521 29,800 1,560 Climbing Memphis Center
08:06PM 36.2339 -89.6958 10° North 453 521 31,500 1,500 Climbing Memphis Center
08:07PM 36.3575 -89.6683 10° North 450 518 32,900 1,200 Climbing Memphis Center
08:08PM 36.4817 -89.6369 11° North 449 517 34,000 480 Climbing Memphis Center
08:09PM 36.6083 -89.6086 10° North 450 518 34,000  Level Memphis Center
08:10PM 36.7353 -89.5769 11° North 457 526 34,000 120 Level Memphis Center
08:11PM 36.8878 -89.5411 11° North 458 527 34,300 900 Climbing Memphis Center
08:12PM 37.0094 -89.5100 12° North 449 517 35,900 1,560 Climbing Memphis Center
08:13PM 37.1272 -89.4819 11° North 436 502 37,500 1,320 Climbing Memphis Center
08:14PM 37.2417 -89.4536 11° North 423 487 38,700 1,020 Climbing Memphis Center
08:15PM 37.3547 -89.4253 11° North 418 481 39,600 780 Climbing Memphis Center
08:16PM 37.4675 -89.3986 11° North 416 479 40,400 660 Climbing Memphis Center
08:17PM 37.5792 -89.3694 12° North 413 475 41,000 240 Climbing Memphis Center
08:18PM 37.6939 -89.3425 11° North 413 475 41,000  Level Memphis Center
08:19PM 37.8114 -89.3133 11° North 423 487 41,000  Level Memphis Center
08:20PM 37.9314 -89.2844 11° North 432 497 41,000  Level Memphis Center
08:21PM 38.0519 -89.2531 12° North 438 504 41,000  Level Memphis Center
08:23PM 38.2122 -89.2114 12° North 442 509 41,000  Level Kansas City Center
08:24PM 38.3333 -89.1808 11° North 442 509 41,000  Level Kansas City Center
08:25PM 38.4678 -89.1383 14° North 443 510 41,000  Level Kansas City Center
08:26PM 38.5856 -89.0847 20° North 443 510 41,000  Level Kansas City Center
08:27PM 38.7108 -89.0283 19° North 448 516 41,000  Level Kansas City Center
08:28PM 38.8253 -88.9769 19° North 446 513 41,000  Level Kansas City Center
08:29PM 38.9369 -88.9269 19° North 435 501 41,000  Level Kansas City Center
08:30PM 39.0494 -88.8756 20° North 434 499 41,000  Level Kansas City Center
08:31PM 39.1858 -88.8136 19° North 434 499 41,000  Level Kansas City Center
08:32PM 39.2978 -88.7622 20° North 434 499 41,000  Level Kansas City Center
08:33PM 39.4106 -88.7094 20° North 434 499 41,000  Level Kansas City Center
08:34PM 39.5250 -88.6581 19° North 434 499 41,000  Level Kansas City Center
08:35PM 39.6422 -88.6167 15° North 436 502 41,000  Level Kansas City Center
08:36PM 39.7603 -88.5983 North 432 497 41,000  Level Kansas City Center
08:37PM 39.9008 -88.5783 North 428 493 41,000  Level Chicago Center
08:38PM 40.0178 -88.5608 North 428 493 41,000  Level Chicago Center
08:39PM 40.1347 -88.5428 North 425 489 41,000  Level Chicago Center
08:40PM 40.2736 -88.5225 North 423 487 41,000  Level Chicago Center
08:41PM 40.3900 -88.5056 North 423 487 41,000  Level Chicago Center
08:42PM 40.4967 -88.4914 North 421 484 41,000  Level Chicago Center
08:43PM 40.6147 -88.4747 North 421 484 41,000  Level Chicago Center
08:44PM 40.7306 -88.4572 North 422 486 41,000 -660 Level Chicago Center
08:45PM 40.8731 -88.4369 North 426 490 39,700 -1,860 Descending Chicago Center
08:46PM 40.9978 -88.4208 North 445 512 37,200 -2,400 Descending Chicago Center
08:47PM 41.1219 -88.4000 North 445 512 34,800 -2,400 Descending Chicago Center
08:48PM 41.2489 -88.3839 North 448 516 32,400 -2,400 Descending Chicago Center
08:49PM 41.3789 -88.3661 North 461 531 30,000 -2,340 Descending Chicago Center
08:50PM 41.5103 -88.3453 North 466 536 27,700 -2,280 Descending Chicago Center
08:51PM 41.6350 -88.3283 North 448 516 25,400 -1,860 Descending Chicago Center
08:52PM 41.7561 -88.3178 North 439 505 24,000 -1,380 Descending Chicago Center
08:54PM 41.8733 -88.3269 357° North 424 488 22,600 -1,500 Descending Chicago Center
08:55PM 41.9889 -88.3331 358° North 420 483 21,000 -1,560 Descending Chicago Center
08:56PM 42.1022 -88.3403 357° North 413 475 19,500 -1,620 Descending Chicago Center
08:57PM 42.2333 -88.3519 356° North 394 453 17,700 -1,560 Descending Chicago Center
08:58PM 42.3322 -88.3636 355° North 392 451 16,400 -1,440 Descending Chicago Center
08:59PM 42.4394 -88.3761 355° North 388 447 14,800 -1,380 Descending Chicago Center
09:00PM 42.5428 -88.3950 352° North 378 435 13,600 -1,320 Descending Chicago Center
09:01PM 42.6653 -88.4172 352° North 373 429 12,200 -1,020 Descending Chicago Center
09:02PM 42.7681 -88.4278 356° North 369 425 11,600 -840 Descending Chicago Center
09:03PM 42.8381 -88.3306 46° Northeast 363 418 10,500 -1,080 Descending Chicago Center
09:04PM 42.8672 -88.2125 71° East 332 382 9,500 -1,320 Descending Chicago Center
09:05PM 42.8917 -88.1117 72° East 290 334 7,900 -1,260 Descending Chicago Center
09:06PM 42.9158 -88.0175 71° East 272 313 7,000 -1,080 Descending Chicago Center
09:07PM 42.9842 -87.9986 11° North 255 293 5,800 -1,140 Descending Chicago Center
09:08PM 43.0556 -87.9878 North 257 296 4,700 -1,200 Descending Chicago Center
09:09PM 43.0906 -87.9267 52° Northeast 228 262 3,400 -960 Descending Chicago Center
09:10PM 43.0558 -87.8847 139° Southeast 203 234 2,800 -780 Descending Chicago Center
09:11PM 43.0189 -87.8797 174° South 162 186 1,900 -780 Descending Chicago Center
09:12PM 42.9839 -87.8878 190° South 140 161 1,300 -600 Descending Chicago Center
09:14PM 42.9469 -87.8971 71° East  Level Estimated
09:21PM 42.9469 -87.8971 71° East  Level Estimated